Other Public Products
Issued by NWS Grand Forks, ND

Home | Current Version | Previous Version | Graphics & Text | Print | Product List | Glossary On
Versions: 1 2 3 4 5 6 7 8 9 10 11 12 13 14 15 16 17 18 19 20 21 22 23 24 25 26 27 28 29 30 31 32 33 34 35 36 37 38 39 40 41 42 43 44 45 46 47 48 49 50
000
FPUS83 KFGF 230310
OPUFGF
PRAIRIE TO PINES WEATHER ROUNDUP
NATIONAL WEATHER SERVICE EASTERN NORTH DAKOTA/GRAND FORKS ND
1000 PM CDT MON SEP 22 2014

 **SATELLITE DATA USED TO AUGMENT SKY COVER AT AUTOMATED STATIONS**
 *****  WEATHER ACROSS EASTERN NORTH DAKOTA  *****

CITY           SKY/WX    TMP DP  RH WIND       PRES   REMARKS
GRAND FORKS    CLEAR     58  49  72 SE7       30.03R
GRAND FORKS AF CLEAR     57  49  75 S7        30.03S
GRAND CITY NWS   N/A     59 N/A N/A S9          N/A
BUXTON         NOT AVBL
DEVILS LAKE    CLEAR     59  50  72 SE7       29.99S
FARGO          CLEAR     64  47  53 SE10      30.06R
WAHPETON ARPT  CLEAR     55  46  71 SE6       30.08S
$$

 *****  WEATHER ACROSS CENTRAL AND WESTERN NORTH DAKOTA  *****

CITY           SKY/WX    TMP DP  RH WIND       PRES   REMARKS
JAMESTOWN      CLEAR     58  48  69 S9        30.02S
BISMARCK       PTCLDY    64  50  60 SE9       29.95S
MINOT          CLEAR     61  49  64 SE6       29.93R
MINOT AFB      CLEAR     62  51  66 S10       29.92R
GARRISON         N/A     62  50  64 S3        29.93S
WILLISTON      CLEAR     68  50  52 SE6       29.88R
DICKINSON      PTCLDY    58  49  72 E9        29.89F
HETTINGER      CLEAR     62  50  64 E10       29.91S
$$

 *****  OTHER OBSERVATIONS NORTHEAST NORTH DAKOTA  *****

CITY           SKY/WX    TMP DP  RH WIND       PRES   REMARKS
WALHALLA         N/A     59  48  67 SE6       30.01R
LANGDON        FAIR      57  46  67 S12       30.01F
CAVALIER       FAIR      59  48  67 S5        30.01S
GRAFTON        FAIR      54  48  82 S8        30.02R
CANDO          FAIR      57  50  77 SE9       30.00S
FORT TOTTEN    NOT AVBL
ROLLA          FAIR      57  45  62 S8        30.00S
RUGBY          FAIR      66  48  52 S12G18    29.97R
 ***** THE ABOVE OBSERVATIONS ARE NON NWS ARE NOT QUALITY
        CONTROLLED AND MAY MIS-REPORT RAIN FOR SNOW...
$$

 *****  OTHER OBSERVATIONS SOUTHEAST NORTH DAKOTA *****

CITY           SKY/WX    TMP DP  RH WIND       PRES   REMARKS
COOPERSTOWN    NOT AVBL
VALLEY CITY    FAIR      55  50  82 S8        30.04S
OAKES            N/A     55  50  82 SE10      30.05S
GWINNER        CLEAR     59  48  67 S9        30.06S
BUFFALO        NOT AVBL
WYNDMERE         N/A     61  48  63 S3          N/A
 ***** THE ABOVE OBSERVATIONS ARE NON NWS ARE NOT QUALITY
       CONTROLLED AND MAY MIS-REPORT RAIN FOR SNOW...
$$

  *****  WEATHER ACROSS NORTHERN MINNESOTA  *****

CITY           SKY/WX    TMP DP  RH WIND       PRES   REMARKS
FLAG ISLAND    CLEAR     61  52  72 SW7       30.05R
WARROAD        CLEAR     57  54  88 S5        30.07R
ROSEAU         CLEAR     55  50  82 S3        30.06S
HALLOCK        CLEAR     57  50  77 SE9       30.02S
THF RVR FALLS  CLEAR     55  46  71 SE8       30.07R
HALSTAD          N/A     55  48  78 SE9         N/A
FOSSTON        CLEAR     57  52  82 SE7       30.09S
BAUDETTE       CLEAR     55  51  86 CALM      30.08R
WASKISH        CLEAR     48  48 100 CALM      30.09S
CROOKSTON      CLEAR     55  48  76 SE9       30.06R
$$
  *****  WEATHER ACROSS CENTRAL AND WEST MINNESOTA  *****

CITY           SKY/WX    TMP DP  RH WIND       PRES   REMARKS
BEMIDJI        CLEAR     52  48  86 CALM      30.11S
PARK RAPIDS    CLEAR     55  49  80 S6        30.12S
WADENA         CLEAR     54  46  76 CALM      30.12F
DETROIT LAKES  CLEAR     59  52  77 S5        30.12S
MOORHEAD       CLEAR     61  52  72 S7        30.08R
FERGUS FALLS   CLEAR     59  46  63 SE7       30.10S
ELBOW LAKE     FAIR      58  49  74 SE7       30.11S
MORRIS MN      CLEAR     54  48  82 SE7       30.10S
STAPLES        CLEAR     52  48  87 CALM      30.13F
WHEATON        CLEAR     52  48  87 SE7       30.10S
$$
  *****  WEATHER ELSEWHERE ACROSS MINNESOTA  *****

CITY           SKY/WX    TMP DP  RH WIND       PRES   REMARKS
DULUTH         CLEAR     57  49  74 W7        30.14R
INTRNTL FALLS  CLEAR     48  46  93 SW3       30.08S
ELY            CLEAR     54  48  82 SW5       30.12R
CLOQUET        CLEAR     57  48  72 SW5       30.14S
BRAINERD       CLEAR     53  49  86 CALM      30.15R
HIBBING        CLEAR     48  45  89 CALM      30.13R
ALEXANDRIA     CLEAR     57  50  77 S7        30.14S
SAINT CLOUD    CLEAR     55  51  86 CALM      30.15S
MINNEAPOLIS    CLEAR     61  51  70 SE5       30.17R
$$

  *****  WEATHER ACROSS SOUTH DAKOTA  *****

CITY           SKY/WX    TMP DP  RH WIND       PRES   REMARKS
SIOUX FALLS    MOCLDY    63  50  62 S12       30.15R
BROOKINGS      NOT AVBL
WATERTOWN      CLEAR     58  48  69 S8        30.11R
HURON          PTCLDY    65  49  56 S12       30.07S
SISSETON         N/A     55  50  83 S8        30.07S
ABERDEEN       CLEAR     63  49  60 S14       30.04F
MITCHELL       MOCLDY    65  51  60 SE10      30.09F
PIERRE         MOCLDY    65  52  62 SE17      29.98F
MOBRIDGE       CLEAR     68  52  56 S17G25    29.94S
RAPID CITY     CLOUDY    62  56  80 SE6       29.95R
$$

  *****  SOME WEATHER IN NEARBY STATES *****

CITY           SKY/WX    TMP DP  RH WIND       PRES   REMARKS
GLASGOW MT     CLEAR     65  47  52 E7        29.83S
GREAT FALLS MT MOCLDY    65  49  56 S9        29.91R
CHEYENNE WY    CLOUDY    61  42  49 W15G23    30.17S
SCOTTSBLUFF NE PTCLDY    59  58  96 SE8       30.05S
OMAHA NE       MOCLDY    65  49  56 S7        30.19S
DES MOINES IA  PTCLDY    61  51  70 S7        30.22S
DAVENPORT IA   CLEAR     53  46  77 CALM      30.26S
CHICAGO IL     CLEAR     57  46  66 S6        30.26R
EAU CLAIRE WI  CLEAR     52  50  93 CALM      30.19R
LA CROSSE WI   CLEAR     56  52  86 SE6       30.21R
$$

  *****  SOME NATIONAL WEATHER *****

CITY           SKY/WX    TMP DP  RH WIND       PRES   REMARKS
LA GUARDIA NY  PTCLDY    58  40  51 NW14      30.15R
RALEIGH NC     CLOUDY    64  58  80 CALM      30.16R
ATLANTA GA     PTCLDY    67  51  56 N9        30.12R
NEW ORLEANS LA CLEAR     80  56  43 NE22G29   30.04R
OKLAHOMA CITY  MOCLDY    63  50  62 E7        30.20R
ALBUQUERQUE NM LGT RAIN  67  60  78 S3        30.26R
SALT LAKE CITY CLOUDY    69  57  65 CALM      30.10R
LOS ANGELES CA PTCLDY    68  64  87 W13       29.92S
BOISE ID       CLEAR     73  49  42 SE5       29.98R
SEATTLE WA     MOCLDY    66  54  65 CALM      29.94S
$$

*** WEATHER ACROSS MANITOBA...SASKATCHEWAN AND ONTARIO ***
                ***ONTARIO***

CITY           SKY/WX    TMP DP  RH WIND       PRES   REMARKS
GERALDTON      CLOUDY    57  55  94 CALM      29.96R
THUNDER BAY    CLEAR     55  50  82 W6        30.03R
SIOUX LOOKOUT  CLEAR     59  50  72 SW3       30.02S
TORONTO        CLEAR     46  41  81 W7        30.20R
BIG TROUT LK   FOG       46  43  87 NE7       30.05R VSB 1/2
PICKLE LAKE    NOT AVBL
DRYDEN         CLEAR     59  50  72 SW9       30.05R
KENORA         CLEAR     59  50  72 SW5       30.06R
$$
                *** MANITOBA***

CITY           SKY/WX    TMP DP  RH WIND       PRES   REMARKS
BRANDON        CLEAR     61  48  63 SE7       29.96R
DAUPHIN        CLEAR     52  48  87 SW2       29.92R
ISLAND LAKE    PTCLDY    57  52  82 E6        29.98R
PILOT MOUND      N/A     55  45  67 SE9         N/A
THE PAS        CLEAR     57  48  72 SE10      29.81S
THOMPSON       CLOUDY    50  48  93 E9        29.93S
WINNIPEG       CLEAR     63  48  59 S12       30.00R
LYNN LAKE      CLEAR     54  48  82 SE13G21   29.79S
CHURCHILL      PTCLDY    36  32  87 SE12      30.09F
GILLAM         CLOUDY    43  41  93 E5        30.04F
$$
                ***SASKATCHEWAN***

CITY           SKY/WX    TMP DP  RH WIND       PRES   REMARKS
ESTEVAN        NOT AVBL
KINDERSLEY     PTCLDY    63  48  59 S3        29.76R
LLOYDMINSTER   PTCLDY    57  48  72 SW8       29.73R
PRINCE ALBERT  PTCLDY    61  48  63 S5        29.74S
REGINA         CLEAR     64  48  55 SE14      29.85S
YORKTON        CLEAR     61  48  63 S8        29.89S


USA.gov is the U.S. government's official web portal to all federal, state and local government web resources and services.